WB4FAY-4 Weather Reports


time (UTC)temp
C
wind
direction
speed
KPH
gust
KPH
rain 1hr
cm
rain 24hr
cm
rain mn
cm
humidity
%
barometer
mb
20260508170017 20 92 6.4 8.0 0.00 0.05 0.00 58 1017.5
20260508165517 20 65 1.6 4.8 0.00 0.05 0.00 60 1017.6
20260508165018 20 147 0.0 4.8 0.00 0.05 0.00 57 1017.6
20260508164517 20 99 0.0 8.0 0.00 0.05 0.00 56 1017.8
20260508164017 20 66 3.2 12.9 0.00 0.05 0.00 56 1017.8
20260508163517 20 99 0.0 9.7 0.00 0.05 0.00 58 1017.8
20260508163017 20 120 1.6 9.7 0.00 0.05 0.00 59 1017.8
20260508162517 20 73 3.2 14.5 0.00 0.05 0.00 58 1018.0
20260508162017 20 90 4.8 11.3 0.00 0.05 0.00 59 1018.1
20260508161517 20 55 8.0 9.7 0.00 0.05 0.00 60 1018.1
20260508161017 19 112 4.8 8.0 0.00 0.05 0.00 60 1018.2
20260508160518 19 66 1.6 12.9 0.00 0.05 0.00 61 1018.2
20260508160018 19 127 4.8 11.3 0.00 0.05 0.00 61 1018.1
20260508155517 18 78 6.4 11.3 0.00 0.05 0.00 61 1018.3
20260508155017 18 66 9.7 14.5 0.00 0.05 0.00 61 1018.5
20260508154517 18 93 3.2 11.3 0.00 0.05 0.00 62 1018.5
20260508154018 18 104 3.2 9.7 0.00 0.05 0.00 62 1018.4
20260508153517 18 68 4.8 12.9 0.00 0.05 0.00 62 1018.4
20260508153017 18 88 1.6 8.0 0.00 0.05 0.00 62 1018.4
20260508152517 18 78 3.2 11.3 0.00 0.05 0.00 62 1018.3
20260508152017 18 99 4.8 14.5 0.00 0.05 0.00 63 1018.4
20260508151517 18 96 4.8 11.3 0.00 0.05 0.00 64 1018.4
20260508151017 18 80 8.0 14.5 0.00 0.05 0.00 66 1018.4
20260508150517 17 99 6.4 9.7 0.00 0.05 0.00 67 1018.6
20260508150017 17 140 6.4 11.3 0.00 0.05 0.00 68 1018.6
20260508145517 17 85 3.2 8.0 0.00 0.05 0.00 69 1018.5
20260508145017 17 97 1.6 8.0 0.00 0.05 0.00 69 1018.6
20260508144517 17 85 3.2 6.4 0.00 0.05 0.00 69 1018.7
20260508144017 17 106 6.4 9.7 0.00 0.05 0.00 69 1018.7
20260508143517 17 64 3.2 9.7 0.00 0.05 0.00 69 1018.7
20260508143017 17 79 8.0 11.3 0.00 0.05 0.00 69 1018.7
20260508142517 17 90 0.0 12.9 0.00 0.05 0.00 69 1018.8
20260508142017 17 73 4.8 11.3 0.00 0.05 0.00 70 1018.8
20260508141517 17 112 1.6 8.0 0.00 0.05 0.00 71 1018.9
20260508141017 17 66 3.2 8.0 0.00 0.05 0.00 72 1018.9
20260508140517 16 124 0.0 11.3 0.00 0.05 0.00 72 1018.9
20260508140017 16 85 4.8 11.3 0.00 0.05 0.00 73 1019.1
20260508135517 16 23 3.2 8.0 0.00 0.05 0.00 73 1019.2
20260508135017 16 8 4.8 4.8 0.00 0.05 0.00 75 1019.2
20260508134517 16 68 1.6 8.0 0.00 0.05 0.00 76 1019.3
20260508134017 16 68 3.2 6.4 0.00 0.05 0.00 76 1019.2
20260508133517 15 80 3.2 8.0 0.00 0.05 0.00 77 1019.2
20260508133017 15 96 3.2 4.8 0.00 0.05 0.00 78 1019.2
20260508132518 15 85 3.2 8.0 0.00 0.05 0.00 78 1019.2
20260508132017 15 86 1.6 8.0 0.00 0.05 0.00 79 1019.1
20260508131517 15 107 1.6 12.9 0.00 0.05 0.00 80 1018.9
20260508131017 15 100 4.8 8.0 0.00 0.05 0.00 80 1019.0
20260508130517 15 95 1.6 17.7 0.00 0.05 0.00 81 1018.8
20260508130017 15 168 4.8 8.0 0.00 0.05 0.00 82 1018.8
20260508125517 14 97 4.8 12.9 0.00 0.05 0.00 82 1018.9
20260508125017 14 123 6.4 12.9 0.00 0.05 0.00 83 1018.7
20260508124517 14 75 3.2 9.7 0.00 0.05 0.00 84 1018.7
20260508124017 14 88 0.0 11.3 0.00 0.05 0.00 84 1018.7
20260508123517 14 126 8.0 9.7 0.00 0.05 0.00 85 1018.7
20260508123017 13 88 3.2 11.3 0.00 0.05 0.00 86 1018.7
20260508122517 13 99 0.0 8.0 0.00 0.05 0.00 86 1018.6
20260508122017 13 106 4.8 11.3 0.00 0.05 0.00 87 1018.5
20260508121518 13 131 4.8 9.7 0.00 0.05 0.00 87 1018.4
20260508121017 13 90 0.0 9.7 0.00 0.05 0.00 88 1018.4
20260508120517 13 100 6.4 6.4 0.00 0.05 0.00 88 1018.4
20260508120017 13 100 4.8 6.4 0.00 0.05 0.00 89 1018.3
20260508115517 13 89 1.6 6.4 0.00 0.05 0.00 89 1018.2
20260508115018 13 100 0.0 6.4 0.00 0.05 0.00 89 1018.2
20260508114517 13 97 3.2 6.4 0.00 0.05 0.00 89 1018.1
20260508114016 13 66 0.0 3.2 0.00 0.05 0.00 90 1018.0
20260508113517 13 93 3.2 3.2 0.00 0.05 0.00 90 1017.9
20260508113017 13 93 1.6 6.4 0.00 0.05 0.00 90 1017.9
20260508112517 13 114 0.0 4.8 0.00 0.05 0.00 90 1017.8
20260508112017 13 83 0.0 8.0 0.00 0.05 0.00 90 1017.6
20260508111517 13 99 4.8 8.0 0.00 0.05 0.00 91 1017.5
20260508111017 13 0 0.0 0.0 0.00 0.05 0.00 91 1017.7
20260508110517 13 133 0.0 4.8 0.00 0.05 0.00 91 1017.5
20260508110017 13 134 0.0 3.2 0.00 0.05 0.00 91 1017.5
20260508105517 13 133 1.6 3.2 0.00 0.05 0.00 91 1017.5
20260508105017 13 130 0.0 3.2 0.00 0.05 0.00 91 1017.4
20260508104517 13 0 0.0 0.0 0.00 0.05 0.00 90 1017.4
20260508104018 13 0 0.0 0.0 0.00 0.05 0.00 90 1017.4
20260508103517 13 0 0.0 0.0 0.00 0.05 0.00 90 1017.2
20260508103017 13 0 0.0 0.0 0.00 0.05 0.00 89 1017.2
20260508102517 13 0 0.0 0.0 0.00 0.05 0.00 89 1017.2
20260508102017 13 0 0.0 0.0 0.00 0.05 0.00 89 1017.1
20260508101517 13 0 0.0 0.0 0.00 0.05 0.00 89 1017.2
20260508101018 13 0 0.0 0.0 0.00 0.05 0.00 88 1017.2
20260508100517 13 0 0.0 0.0 0.00 0.05 0.00 88 1017.1
20260508100017 13 0 0.0 0.0 0.00 0.05 0.00 88 1017.0
20260508095517 13 0 0.0 0.0 0.00 0.05 0.00 87 1016.9
20260508095017 13 0 0.0 0.0 0.00 0.05 0.00 87 1016.6
20260508094518 13 0 0.0 0.0 0.00 0.05 0.00 86 1016.5
20260508094017 14 117 0.0 1.6 0.00 0.05 0.00 86 1016.3
20260508093517 14 0 0.0 0.0 0.00 0.05 0.00 85 1016.2
20260508093018 14 0 0.0 0.0 0.00 0.05 0.00 85 1016.1
20260508092517 14 138 0.0 1.6 0.00 0.05 0.00 84 1015.9
20260508092018 14 0 0.0 0.0 0.00 0.05 0.00 84 1015.8
20260508091517 14 0 0.0 0.0 0.00 0.05 0.00 83 1015.7
20260508091018 14 130 0.0 3.2 0.00 0.05 0.00 83 1015.8
20260508090517 15 134 0.0 4.8 0.00 0.05 0.00 83 1015.7
20260508090017 15 138 0.0 4.8 0.00 0.05 0.00 82 1015.9
20260508085517 15 119 3.2 4.8 0.00 0.05 0.00 82 1015.7
20260508085017 14 107 0.0 8.0 0.00 0.05 0.00 82 1015.7
20260508084517 15 140 1.6 3.2 0.00 0.05 0.00 83 1015.5
20260508084017 14 120 0.0 6.4 0.00 0.05 0.00 83 1015.6
20260508083517 14 89 3.2 6.4 0.00 0.05 0.00 83 1015.4
20260508083017 14 121 4.8 4.8 0.00 0.05 0.00 84 1015.5
20260508082517 14 119 0.0 4.8 0.00 0.05 0.00 84 1015.7
20260508082017 14 97 1.6 8.0 0.00 0.05 0.00 85 1015.6
20260508081517 14 123 0.0 6.4 0.00 0.05 0.00 86 1015.5
20260508081017 14 124 3.2 4.8 0.00 0.05 0.00 86 1015.4
20260508080517 15 0 0.0 0.0 0.00 0.05 0.00 86 1015.5
20260508080018 15 0 0.0 0.0 0.00 0.05 0.00 85 1015.5
20260508075517 15 0 0.0 0.0 0.00 0.05 0.00 84 1015.8
20260508075018 15 0 0.0 0.0 0.00 0.05 0.00 84 1015.9
20260508074517 15 0 0.0 0.0 0.00 0.05 0.00 83 1015.9
20260508074017 15 0 0.0 0.0 0.00 0.05 0.00 82 1015.9
20260508073517 15 0 0.0 0.0 0.00 0.05 0.00 81 1015.9
20260508073018 15 0 0.0 0.0 0.00 0.05 0.00 81 1016.0
20260508072517 15 0 0.0 0.0 0.00 0.05 0.00 80 1016.0
20260508072017 16 336 0.0 1.6 0.00 0.05 0.00 80 1016.0
20260508071517 16 346 1.6 9.7 0.00 0.05 0.00 80 1016.1
20260508071017 16 37 0.0 6.4 0.00 0.05 0.00 80 1016.0
20260508070517 16 3 1.6 9.7 0.00 0.05 0.00 80 1016.0
20260508070017 16 35 1.6 9.7 0.00 0.05 0.00 80 1016.0
20260508065517 16 179 1.6 4.8 0.00 0.05 0.00 80 1015.9
20260508065017 16 40 0.0 8.0 0.00 0.05 0.00 81 1016.0
20260508064517 16 7 1.6 8.0 0.00 0.05 0.00 81 1016.1
20260508064017 15 333 1.6 9.7 0.00 0.05 0.00 82 1016.1
20260508063517 15 309 0.0 9.7 0.00 0.05 0.00 83 1016.1
20260508063017 15 20 0.0 6.4 0.00 0.05 0.00 84 1016.1
20260508062517 15 347 1.6 12.9 0.00 0.05 0.00 85 1016.1
20260508062017 15 360 0.0 11.3 0.00 0.05 0.00 86 1016.3
20260508061518 15 48 3.2 3.2 0.00 0.05 0.00 86 1016.2
20260508061017 15 51 0.0 6.4 0.00 0.05 0.00 86 1016.3
20260508060517 15 38 0.0 4.8 0.00 0.05 0.00 87 1016.1
20260508060018 15 41 1.6 6.4 0.00 0.05 0.00 86 1016.2
20260508055517 15 47 1.6 4.8 0.00 0.05 0.00 87 1016.3
20260508055017 15 40 0.0 8.0 0.00 0.05 0.00 87 1016.4
20260508054517 15 45 0.0 4.8 0.00 0.05 0.00 87 1016.5
20260508054017 15 42 0.0 4.8 0.00 0.05 0.00 87 1016.5
20260508053517 15 40 0.0 3.2 0.00 0.05 0.00 87 1016.8
20260508053017 15 55 3.2 1.6 0.00 0.05 0.00 87 1016.8
20260508052517 15 0 0.0 0.0 0.00 0.05 0.00 87 1016.8
20260508052017 15 0 0.0 0.0 0.00 0.05 0.00 86 1016.8
20260508051518 15 0 0.0 0.0 0.00 0.05 0.00 86 1016.8
20260508051017 15 0 0.0 0.0 0.00 0.05 0.00 86 1016.8
20260508050517 15 38 0.0 1.6 0.00 0.05 0.00 85 1016.8
20260508050017 15 0 0.0 0.0 0.00 0.05 0.00 85 1016.9
20260508045517 15 0 0.0 0.0 0.00 0.00 0.05 85 1016.9
20260508045017 16 0 0.0 0.0 0.00 0.00 0.05 85 1016.8
20260508044518 16 0 0.0 0.0 0.00 0.00 0.05 84 1016.8
20260508044017 16 0 0.0 0.0 0.00 0.00 0.05 84 1016.9
20260508043517 16 0 0.0 0.0 0.00 0.00 0.05 83 1016.8
20260508043016 16 0 0.0 0.0 0.00 0.00 0.05 83 1016.8
20260508042517 16 58 0.0 0.0 0.00 0.00 0.05 83 1017.0
20260508042017 16 30 0.0 3.2 0.00 0.00 0.05 83 1016.8
20260508041518 16 10 0.0 1.6 0.00 0.00 0.05 82 1016.9
20260508041017 16 0 0.0 0.0 0.00 0.00 0.05 82 1016.8
20260508040518 16 0 0.0 0.0 0.00 0.00 0.05 82 1016.6
20260508040017 16 0 0.0 0.0 0.00 0.00 0.05 81 1017.0
20260508035517 16 0 0.0 0.0 0.00 0.00 0.05 80 1016.8
20260508035018 16 0 0.0 0.0 0.00 0.00 0.05 80 1016.9
20260508034518 16 11 0.0 3.2 0.00 0.00 0.05 80 1016.8
20260508034018 17 85 0.0 1.6 0.00 0.00 0.05 80 1016.8
20260508033517 17 25 0.0 1.6 0.00 0.00 0.05 80 1016.8
20260508033017 17 11 0.0 1.6 0.00 0.00 0.05 79 1016.6
20260508032517 17 0 1.6 0.0 0.00 0.00 0.05 77 1016.6
20260508032016 17 10 0.0 3.2 0.00 0.00 0.05 77 1016.6
20260508031517 17 347 1.6 6.4 0.00 0.00 0.05 76 1016.8
20260508031017 17 301 0.0 4.8 0.00 0.00 0.05 75 1016.6
20260508030517 17 295 0.0 4.8 0.00 0.00 0.05 74 1016.4
20260508030017 17 294 1.6 4.8 0.00 0.00 0.05 74 1016.4
20260508025517 17 17 3.2 8.0 0.00 0.00 0.05 74 1016.4
20260508025017 17 328 6.4 8.0 0.00 0.00 0.05 73 1016.6
20260508024517 17 16 1.6 8.0 0.00 0.00 0.05 73 1016.4
20260508024017 17 14 1.6 6.4 0.00 0.00 0.05 72 1016.1
20260508023517 17 17 0.0 8.0 0.00 0.00 0.05 73 1016.1
20260508023017 17 337 0.0 11.3 0.00 0.00 0.05 73 1016.1
20260508022518 17 6 0.0 8.0 0.00 0.00 0.05 75 1016.4
20260508022017 17 340 4.8 4.8 0.00 0.00 0.05 74 1016.2
20260508021517 17 318 1.6 9.7 0.00 0.00 0.05 75 1015.9
20260508021017 17 343 3.2 8.0 0.00 0.00 0.05 76 1016.1
20260508020517 17 325 3.2 8.0 0.00 0.00 0.05 76 1016.1
20260508020017 17 337 0.0 6.4 0.00 0.00 0.05 76 1016.0
20260508015517 17 359 1.6 6.4 0.00 0.00 0.05 76 1015.9
20260508015017 17 10 0.0 6.4 0.00 0.00 0.05 76 1015.8
20260508014517 17 344 3.2 3.2 0.00 0.00 0.05 77 1016.0
20260508014017 17 8 0.0 4.8 0.00 0.00 0.05 77 1015.9
20260508013517 17 44 1.6 11.3 0.00 0.00 0.05 77 1015.9
20260508013017 17 38 0.0 4.8 0.00 0.00 0.05 79 1015.8
20260508012517 17 0 0.0 0.0 0.00 0.00 0.05 79 1015.8
20260508012017 17 0 0.0 0.0 0.00 0.00 0.05 79 1015.7
20260508011517 18 0 0.0 0.0 0.00 0.00 0.05 79 1015.8
20260508011017 18 0 0.0 0.0 0.00 0.00 0.05 78 1015.7
20260508010517 18 318 0.0 1.6 0.00 0.00 0.05 77 1015.6
20260508010017 18 356 0.0 3.2 0.00 0.00 0.05 77 1015.5
20260508005517 18 0 0.0 0.0 0.00 0.00 0.05 76 1015.5
20260508005017 18 0 0.0 0.0 0.00 0.00 0.05 75 1015.4
20260508004517 18 344 0.0 3.2 0.00 0.00 0.05 74 1015.3
20260508004017 19 0 0.0 0.0 0.00 0.00 0.05 73 1015.3
20260508003517 19 349 0.0 6.4 0.00 0.00 0.05 71 1015.4
20260508003018 19 343 1.6 6.4 0.00 0.00 0.05 70 1015.3
20260508002517 20 346 0.0 3.2 0.00 0.00 0.05 71 1015.4
20260508002017 20 56 1.6 4.8 0.00 0.00 0.05 69 1015.3
20260508001517 20 308 1.6 6.4 0.00 0.00 0.05 69 1015.4
20260508001017 20 316 0.0 6.4 0.00 0.00 0.05 67 1015.4
20260508000517 20 347 0.0 9.7 0.00 0.00 0.05 67 1015.2
20260508000017 20 350 4.8 4.8 0.00 0.00 0.05 69 1015.2
20260507235517 20 17 4.8 8.0 0.00 0.00 0.05 67 1015.1
20260507235017 20 359 1.6 9.7 0.00 0.00 0.05 66 1015.1
20260507234517 20 8 1.6 9.7 0.00 0.00 0.05 67 1014.9
20260507234017 20 18 3.2 8.0 0.00 0.00 0.05 67 1014.8
20260507233518 21 346 0.0 11.3 0.00 0.00 0.05 68 1014.9
20260507233017 21 340 4.8 11.3 0.00 0.00 0.05 67 1015.0
20260507232517 21 27 1.6 6.4 0.00 0.00 0.05 66 1014.8
20260507232017 21 326 1.6 12.9 0.00 0.00 0.05 65 1014.8
20260507231518 21 318 4.8 8.0 0.00 0.00 0.05 65 1014.7
20260507231017 21 328 0.0 9.7 0.00 0.00 0.05 66 1014.7
20260507230517 21 340 6.4 16.1 0.00 0.00 0.05 65 1014.7
20260507230017 22 323 4.8 6.4 0.00 0.00 0.05 66 1014.6
20260507225517 22 329 0.0 11.3 0.00 0.00 0.05 64 1014.5
20260507225017 22 32 4.8 9.7 0.00 0.00 0.05 64 1014.5
20260507224517 23 23 0.0 4.8 0.00 0.00 0.05 64 1014.4
20260507224016 23 10 3.2 6.4 0.00 0.00 0.05 62 1014.5
20260507223517 23 24 0.0 6.4 0.00 0.00 0.05 63 1014.4
20260507223018 22 78 1.6 3.2 0.00 0.00 0.05 63 1014.5
20260507222517 22 86 0.0 4.8 0.00 0.00 0.05 64 1014.4
20260507222017 22 330 0.0 6.4 0.00 0.00 0.05 63 1014.3
20260507221517 22 264 3.2 9.7 0.00 0.00 0.05 64 1014.4
20260507221017 22 193 3.2 9.7 0.00 0.00 0.05 63 1014.5
20260507220517 22 37 3.2 11.3 0.00 0.00 0.05 64 1014.4
20260507220017 22 17 6.4 11.3 0.00 0.00 0.05 62 1014.4
20260507215517 22 52 4.8 9.7 0.00 0.00 0.05 62 1014.3
20260507215017 22 318 1.6 6.4 0.00 0.00 0.05 63 1014.4
20260507214516 23 302 1.6 6.4 0.00 0.00 0.05 63 1014.3
20260507214017 23 59 3.2 4.8 0.00 0.00 0.05 63 1014.2
20260507213517 22 16 0.0 4.8 0.00 0.00 0.05 65 1014.3
20260507213017 22 347 1.6 4.8 0.00 0.00 0.05 65 1014.3
20260507212517 22 325 1.6 11.3 0.00 0.00 0.05 64 1014.1
20260507212017 22 1 3.2 16.1 0.00 0.00 0.05 63 1014.2
20260507211517 22 339 3.2 8.0 0.00 0.00 0.05 63 1014.2
20260507211017 22 8 0.0 11.3 0.00 0.00 0.05 65 1014.0
20260507210517 22 107 4.8 4.8 0.00 0.00 0.05 66 1014.0
20260507210017 22 30 0.0 11.3 0.00 0.00 0.05 66 1014.1
20260507205517 22 312 6.4 12.9 0.00 0.00 0.05 67 1014.1
20260507205017 22 268 3.2 16.1 0.00 0.00 0.05 63 1014.2
20260507204517 22 326 0.0 9.7 0.00 0.00 0.05 64 1014.3
20260507204017 22 285 0.0 6.4 0.00 0.00 0.05 65 1014.5
20260507203517 22 318 4.8 8.0 0.00 0.00 0.05 65 1014.4
20260507203017 22 288 4.8 8.0 0.00 0.00 0.05 65 1014.4
20260507202517 22 241 3.2 8.0 0.00 0.00 0.05 66 1014.4
20260507202017 22 230 3.2 8.0 0.00 0.00 0.05 68 1014.2
20260507201517 22 227 1.6 8.0 0.00 0.00 0.05 70 1014.4
20260507201017 22 64 4.8 9.7 0.00 0.00 0.05 69 1014.4
20260507200517 21 16 3.2 8.0 0.00 0.00 0.05 70 1014.6
20260507200017 21 264 3.2 8.0 0.00 0.00 0.05 72 1014.6
20260507195517 21 265 4.8 6.4 0.00 0.00 0.05 72 1014.4
20260507195017 21 210 1.6 8.0 0.00 0.00 0.05 70 1014.5
20260507194517 21 339 4.8 9.7 0.00 0.00 0.05 74 1014.7
20260507194017 21 336 4.8 6.4 0.00 0.00 0.05 71 1014.7
20260507193517 20 148 1.6 6.4 0.00 0.00 0.05 74 1014.7
20260507193018 20 360 1.6 11.3 0.00 0.00 0.05 75 1014.6
20260507192517 20 337 4.8 9.7 0.00 0.00 0.05 75 1014.6
20260507192018 20 27 8.0 6.4 0.00 0.00 0.05 76 1014.8
20260507191517 20 93 0.0 4.8 0.00 0.00 0.05 78 1014.9
20260507191017 20 97 4.8 6.4 0.00 0.00 0.05 76 1014.8
20260507190517 20 104 0.0 9.7 0.00 0.00 0.05 75 1014.7
20260507190018 20 325 4.8 11.3 0.00 0.00 0.05 76 1014.8
20260507185517 20 353 9.7 9.7 0.00 0.00 0.05 77 1014.8
20260507185017 19 13 6.4 11.3 0.00 0.00 0.05 78 1014.7
20260507184517 18 333 3.2 14.5 0.00 0.00 0.05 78 1015.0
20260507184017 18 340 6.4 12.9 0.00 0.00 0.05 79 1014.9
20260507183517 18 271 1.6 8.0 0.00 0.00 0.05 80 1015.2
20260507183017 18 3 1.6 12.9 0.00 0.00 0.05 80 1015.2
20260507182517 18 320 4.8 12.9 0.00 0.00 0.05 81 1015.3
20260507182017 18 308 4.8 14.5 0.00 0.00 0.05 82 1015.5
20260507181517 18 360 0.0 9.7 0.00 0.00 0.05 83 1015.5
20260507181017 18 359 6.4 16.1 0.00 0.00 0.05 84 1015.5
20260507180517 18 278 3.2 12.9 0.00 0.00 0.05 85 1015.6
20260507180017 18 4 3.2 8.0 0.00 0.00 0.05 86 1015.4
20260507175517 17 4 3.2 11.3 0.00 0.00 0.05 86 1015.5
20260507175017 17 350 9.7 12.9 0.00 0.00 0.05 86 1015.7
20260507174516 17 34 11.3 4.8 0.00 0.00 0.05 89 1015.7
20260507174017 17 289 3.2 3.2 0.00 0.00 0.05 89 1015.7
20260507173517 17 322 3.2 6.4 0.00 0.00 0.05 90 1015.8
20260507173017 17 247 0.0 8.0 0.00 0.00 0.05 91 1015.9
20260507172517 17 337 3.2 9.7 0.00 0.00 0.05 92 1015.9
20260507172017 17 342 1.6 16.1 0.00 0.00 0.05 93 1015.9
20260507171517 16 312 0.0 8.0 0.00 0.00 0.05 94 1016.0
20260507171017 16 239 1.6 8.0 0.00 0.00 0.05 95 1015.9
20260507170517 16 47 0.0 4.8 0.00 0.00 0.05 95 1016.0